Weather History for CWJU - January, 2014

Change the Weather History Date:

Thursday, January 16, 2014

  Actual Average Record
Temperature  
Mean Temperature 43 °F -  
Max Temperature 47 °F - - ()
Min Temperature 39 °F - - ()
Degree Days  
Heating Degree Days 22    
Moisture  
Dew Point 42 °F    
Average Humidity 88    
Maximum Humidity 100    
Minimum Humidity 76    
Precipitation  
Precipitation 0.01 in - - ()
Sea Level Pressure  
Sea Level Pressure 30.21 in    
Wind  
Wind Speed 6 mph ()    
Max Wind Speed 10 mph    
Max Gust Speed 20 mph    
T = Trace of Precipitation, MM = Missing Value Source: Averaged Metar Reports

Daily Weather History Graph

Daily Weather History Graph

Search for Another Location

Airport or City:

Trip Planner

Search our weather history database for the weather conditions in past years. The results will help you decide how hot, cold, wet, or windy it might be!

Date:

Astronomy

Jan. 16, 2014 Rise Set
Actual Time 9:02 AM PST 5:01 PM PST
Civil Twilight 8:21 AM PST 5:43 PM PST
Nautical Twilight 7:36 AM PST 6:28 PM PST
Astronomical Twilight 6:53 AM PST 7:11 PM PST
Moon 6:17 PM PST (1/16) 8:45 AM PST (1/16)
Length of Visible Light 9h 22m
Length of Day
7h 59m
Full, 100% of the Moon is Illuminated
Jan 16
Full
Jan 23
Last Quarter
Jan 30
New
Feb 6
First Quarter
Feb 14
Full

Hourly Weather History & Observations

Time (PST) Temp. Windchill Dew Point Humidity Pressure Visibility Wind Dir Wind Speed Gust Speed Precip Events Conditions
12:00 AM 45.5 °F 41.3 °F 46.4 °F 100% 30.25 in - SSW 8.1 mph 17.3 mph N/A   Unknown
1:00 AM 47.7 °F - 46.4 °F 95% 30.25 in - SSW 5.8 mph - N/A   Unknown
2:00 AM 47.7 °F - 45.1 °F 91% 30.24 in - SSW 6.9 mph - N/A   Unknown
3:00 AM 47.1 °F - 44.8 °F 92% 30.24 in - SW 6.9 mph 19.6 mph N/A   Unknown
4:00 AM 46 °F - 44 °F 89% 30.25 in - SW 10.4 mph - -  
4:00 AM 46.0 °F 41.0 °F 41.9 °F 85% 30.25 in - SW 10.4 mph 19.6 mph N/A   Unknown
5:00 AM 45.7 °F 41.5 °F 42.8 °F 90% 30.25 in - SW 8.1 mph 17.3 mph N/A   Unknown
6:00 AM 43.7 °F 39.1 °F 42.1 °F 94% 30.24 in - SW 8.1 mph 18.4 mph N/A   Unknown
7:00 AM 45.3 °F 42.3 °F 40.8 °F 84% 30.22 in - SSW 5.8 mph - N/A   Unknown
8:00 AM 45.0 °F 41.2 °F 41.0 °F 86% 30.22 in - South 6.9 mph - N/A   Unknown
9:00 AM 45.3 °F 41.1 °F 38.3 °F 76% 30.22 in - SSW 8.1 mph 19.6 mph N/A   Unknown
10:00 AM 45 °F - 40 °F 78% 30.22 in - SSE 5.8 mph - -  
10:00 AM 45.1 °F 42.0 °F 40.3 °F 83% 30.22 in - SSE 5.8 mph - N/A   Unknown
11:00 AM 45.3 °F 41.6 °F 41.2 °F 85% 30.20 in - South 6.9 mph - N/A   Unknown
12:00 PM 43.7 °F 41.1 °F 41.9 °F 93% 30.20 in - SSE 4.6 mph - N/A   Unknown
1:00 PM 45.7 °F - 41.9 °F 87% 30.20 in - SSW 2.3 mph - N/A   Unknown
2:00 PM 46.2 °F 42.7 °F 41.0 °F 82% 30.19 in - SW 6.9 mph 18.4 mph N/A   Unknown
3:00 PM 46.2 °F 44.1 °F 41.2 °F 83% 30.19 in - SSW 4.6 mph - N/A   Unknown
4:00 PM 45 °F - 42 °F 83% 30.19 in - SSE 5.8 mph - -  
4:00 PM 45.1 °F 42.0 °F 41.5 °F 87% 30.19 in - SSE 5.8 mph - N/A   Unknown
5:00 PM 44.6 °F 40.7 °F 41.5 °F 89% 30.20 in - SSE 6.9 mph - N/A   Unknown
6:00 PM 44.4 °F 40.5 °F 41.5 °F 90% 30.20 in - SSE 6.9 mph - N/A   Unknown
7:00 PM 44.2 °F 39.7 °F 41.5 °F 90% 30.21 in - SSE 8.1 mph - N/A   Unknown
8:00 PM 44.1 °F 40.8 °F 41.0 °F 89% 30.19 in - SSE 5.8 mph - N/A   Unknown
9:00 PM 43.5 °F - 41.0 °F 91% 30.18 in - South 2.3 mph - N/A   Unknown
10:00 PM 43 °F - 41 °F 90% 30.17 in - SE 5.8 mph - -  
10:00 PM 43.3 °F 39.9 °F 41.0 °F 91% 30.17 in - SE 5.8 mph - N/A   Unknown
11:00 PM 42.6 °F 37.8 °F 40.6 °F 93% 30.15 in - SE 8.1 mph - N/A   Unknown